LIBQ  Monte Scuro Airport

Add Bookmark

Italy

Status
Operational
Latitude Longitude
39° 19' 12" N 16° 22' 47" E
39.320000 16.380000
Local (DST + 2) UTC (GMT + 1)
Oct 23, 2014 10:39 Oct 23, 2014 08:39
Sunrise-Sunset Local UTC
Begin Civil Twilight 06:44 04:44
Sunrise 07:11 05:11
Sunset 06:05 16:05
End Civil Twilight 06:33 16:33

Current Weather

METAR Observed VFR
LIBQ 230755Z 30015KT CAVOK 00/M05 Q1006 Thu, Oct 23, 2014 @ 07:55 UTC
(44 Minutes ago)
Visual Flight Rules
Wind Visibility Clouds Conditions
300° at 15 knots (28 kph) 10 km or more
  • Clear skies
  • No significant weather
Temperatures Readings Precipitation
Current Temp 0°C (32°F)
Dewpoint -5°C (23°F)
Humidity 69%
Altimeter 29.7"Hg
Sea Level Pressure 1006mb
Field Elevation 5643.04'
None Recorded

Additional weather within a 92.6km radius of LIBQ

Map ICAO Location
LICA 47.6km S (195°)
LIBC 70.2km E (121°)

24 Hour Weather History

Loading
-

24 Hour Weather Graphs

Loading
-

CheckWX.com is intended as a tool to help pilots better visualize weather data. It is not intended as a substitute for an official weather briefing obtained from a Flight Service Station. CheckWX.com does not meet the FAA requirements for an official pre-flight weather briefing. Therefore, it's important that pilots still call and obtain an official FSS pre-flight weather briefing.